Regional Weather Roundup
Issued by NWS

Home | Current Version | Previous Version | Text Only | Print | Product List | Glossary Off
Versions: 1 2 3 4 5 6 7 8 9 10 11 12 13 14 15 16 17 18 19 20 21 22 23 24 25 26 27 28 29 30 31 32 33 34 35 36 37 38 39 40 41 42 43 44 45 46 47 48 49 50

000
ASUS43 KBIS 251710
RWRND

NORTH DAKOTA REGIONAL WEATHER ROUNDUP
NATIONAL WEATHER SERVICE BISMARCK ND
1100 AM CST THU DEC 25 2014

NOTE: "FAIR" INDICATES FEW OR NO CLOUDS BELOW 12,000 FEET WITH NO
SIGNIFICANT WEATHER AND/OR OBSTRUCTIONS TO VISIBILITY.


NDZ001>003-009>011-017-251800-
NORTHWEST NORTH DAKOTA

CITY           SKY/WX    TMP DP  RH WIND       PRES   REMARKS
WILLISTON      CLOUDY    26  21  81 NW14      29.84R WCI  14
MINOT          CLOUDY    26  21  81 NW13      29.77R WCI  15
MINOT AFB      MIX PCPN  26  26  99 NW15      29.78R WCI  14
$$

NDZ018>021-031>035-040>046-251800-
SOUTHWEST NORTH DAKOTA

CITY           SKY/WX    TMP DP  RH WIND       PRES   REMARKS
BISMARCK       CLOUDY    29  24  82 W5        29.78R
DICKINSON      CLOUDY    27  23  86 NW13      29.76R WCI  16
GARRISON         N/A     26  22  84 NW20      29.77R WCI  12
HETTINGER ARPT CLOUDY    26  22  84 N13       29.78R WCI  15
$$

NDZ004>008-012>016-024-026-027-054-251800-
NORTHEAST NORTH DAKOTA

CITY           SKY/WX    TMP DP  RH WIND       PRES   REMARKS
GRAND FORKS    CLOUDY    28  24  85 NW8       29.72R WCI  20
GRND FRKS AFB  CLOUDY    28  27  99 NW7       29.73R
DEVILS LAKE    CLOUDY    25  21  86 NW8       29.72R WCI  16
$$

NDZ022-023-025-028>030-036>039-047>053-251800-
SOUTHEAST NORTH DAKOTA

CITY           SKY/WX    TMP DP  RH WIND       PRES   REMARKS
FARGO          CLOUDY    29  24  82 NW12      29.74R WCI  19
JAMESTOWN      CLOUDY    24  20  84 N14       29.75R WCI  12
$$




USA.gov is the U.S. government's official web portal to all federal, state and local government web resources and services.